[[{"header":{"parameterUnit":"m.s-1","parameterCategory":1,"la1":30.2991,"la2":30.254,"lo1":-89.0895,"lo2":-89.0444,"dy":0.0017,"dx":0.0017,"nx":28,"ny":28,"refTime":"2023-11-11T09:00:00:Z","depth":0,"parameterNumber":2,"parameterNumberName":"U-component_of_WINDS"},"data":[0,0,0,0,0,0,0,0,0,0,0,0,0,0,0,0,0,0,0,0,0,0,0,0,0,0,0,0,0,0,0,0,0,0,0,0,0,0,0,0,0,0,0,0,0,0,0,0,0,0,0,0,0,0,0,0,0,0,-2.0229,-2.0229,0,-2.0262,-2.0262,-2.0263,-2.0216,-2.0215,-2.0213,-2.0211,-2.0246,-2.0248,-2.025,0,0,0,0,0,0,0,0,0,0,0,0,0,-2.0124,-2.0127,-2.0229,-2.0229,-2.0229,-2.0262,-2.0262,-2.0263,-2.0217,-2.0215,-2.0213,-2.0211,-2.0245,-2.0248,-2.0251,0,0,0,0,0,0,0,0,0,0,0,0,0,-2.0165,-2.0127,-2.0228,-2.021,-2.0209,-2.0262,-2.0262,-2.0263,-2.0217,-2.0214,-2.0212,-2.021,-2.0244,-2.0247,-2.0251,-2.0323,0,0,-2.0262,-2.0264,0,0,0,0,0,0,0,0,-2.0163,-2.0169,-2.0213,-2.0212,-2.021,-2.0232,-2.0238,-2.0283,-2.0218,-2.0214,-2.0211,-2.0208,-2.0243,-2.0247,-2.0259,-2.0325,-2.0326,-2.0263,-2.0265,-2.0266,-2.0268,0,0,0,0,0,0,0,-2.016,-2.0167,-2.0242,-2.0213,-2.0212,-2.02,-2.0203,-2.0246,-2.0242,-2.0214,-2.0211,-2.0215,-2.0242,-2.0255,-2.0259,-2.0327,-2.0263,-2.0266,-2.0268,-2.027,-2.0454,-2.0457,0,0,0,0,0,0,-2.0159,-2.0165,-2.0241,-2.0243,-2.018,-2.0204,-2.0207,-2.0228,-2.0241,-2.0241,-2.0217,-2.0213,-2.025,-2.0255,-2.026,-2.0346,-2.0266,-2.027,-2.0272,-2.0452,-2.0455,-2.0458,0,0,0,0,0,0,-2.0157,-2.0167,-2.0239,-2.0203,-2.0211,-2.0209,-2.0232,-2.023,-2.0243,-2.0244,-2.0243,-2.0232,-2.0248,-2.0255,-2.0308,-2.0347,-2.0272,-2.0275,-2.0448,-2.0453,-2.0456,-2.0519,0,0,0,0,0,0,-2.0154,-2.0166,-2.0194,-2.0204,-2.0214,-2.0287,-2.0234,-2.0232,-2.0249,-2.0244,-2.0257,-2.0257,-2.0247,-2.0303,-2.0312,-2.035,-2.0278,-2.0445,-2.045,-2.0455,-2.0513,-2.0524,-2.0534,0,0,0,0,0,-2.0151,-2.021,-2.0195,-2.0205,-2.0248,-2.0289,-2.0295,-2.0282,-2.0252,-2.028,-2.0281,-2.0256,-2.0341,-2.0309,-2.0318,-2.0359,-2.0443,-2.0449,-2.0455,-2.0508,-2.0522,-2.0533,0,0,0,0,0,0,-2.0204,-2.0211,-2.0195,-2.0259,-2.0274,-2.0282,-2.0316,-2.0297,-2.0321,-2.0315,-2.0298,-2.0301,-2.0358,-2.0363,-2.0328,-2.0429,-2.0387,-2.0395,-2.0424,-2.0437,-2.0447,-2.0445,-2.0281,0,0,0,0,0,-2.0224,-2.0257,-2.026,-2.0317,-2.0325,-2.0319,-2.0337,-2.0326,-2.0341,-2.0347,-2.0351,-2.0367,-2.0397,-2.0417,-2.0444,-2.0513,-2.0515,-2.0545,-2.0556,-2.0564,-2.0572,-2.0609,-2.0622,-2.0478,-2.0478,-2.0478,0,0,-2.0264,-2.0271,-2.0293,-2.0328,-2.0338,-2.0373,-2.0325,-2.0364,-2.039,-2.0353,-2.0404,-2.0407,-2.0423,-2.0485,-2.0512,-2.0491,-2.0612,-2.0572,-2.0579,-2.0582,-2.0616,-2.063,-2.0642,-2.0482,-2.0481,-2.0481,0,0,-2.0355,-2.0364,-2.0412,-2.0423,-2.0439,-2.0435,-2.0446,-2.0457,-2.0458,-2.0508,-2.0482,-2.0511,-2.0563,-2.0576,-2.0589,-2.0684,-2.0663,-2.0693,-2.0748,-2.0784,-2.0796,-2.0806,-2.084,-2.0853,-2.0701,-2.0701,-2.0701,0,-2.0403,-2.0455,-2.0439,-2.048,-2.0496,-2.0463,-2.0512,-2.0523,-2.0548,-2.0559,-2.0535,-2.0599,-2.0608,-2.0672,-2.0695,-2.0706,-2.0719,-2.0693,-2.0795,-2.0805,-2.0814,-2.0847,-2.086,-2.0705,-2.0704,-2.0704,-2.0704,0,-2.0513,-2.0549,-2.0586,-2.061,-2.063,-2.0675,-2.0666,-2.0687,-2.0674,-2.0672,-2.0724,-2.0733,-2.0762,-2.0776,-2.0763,-2.0838,-2.0824,-2.0798,-2.0755,-2.0832,-2.0863,-2.0875,-2.071,-2.0709,-2.0708,-2.0707,0,0,-2.064,-2.0655,-2.0669,-2.068,-2.0695,-2.0722,-2.0765,-2.0793,-2.0812,-2.083,-2.0866,-2.091,-2.0885,-2.09,-2.0888,-2.092,-2.0996,-2.089,-2.089,-2.091,-2.1079,-2.11,-2.1115,-2.0981,-2.0983,-2.0985,-2.1078,0,-2.0732,-2.0807,-2.0793,-2.0866,-2.0899,-2.0868,-2.0905,-2.0919,-2.0918,-2.0946,-2.0944,-2.0976,-2.0941,-2.095,-2.098,-2.098,-2.103,-2.0973,-2.1014,-2.1016,-2.1013,-2.1131,-2.1153,-2.1241,-2.109,-2.1092,-2.1093,0,-2.085,-2.0872,-2.0948,-2.0957,-2.0971,-2.1005,-2.1029,-2.1056,-2.107,-2.1067,-2.1084,-2.1066,-2.1108,-2.1064,-2.1122,-2.1084,-2.1099,-2.1102,-2.1105,-2.111,-2.106,-2.114,-2.1268,-2.1282,-2.1112,-2.111,-2.1109,0,-2.0937,-2.0985,-2.1037,-2.1047,-2.1059,-2.1084,-2.109,-2.1101,-2.1119,-2.114,-2.1151,-2.1177,-2.1192,-2.1212,-2.1201,-2.117,-2.1262,-2.1216,-2.1261,-2.1261,-2.1283,-2.1282,-2.1418,-2.1291,-2.1291,-2.1291,-2.129,0,-2.1042,-2.109,-2.1076,-2.1108,-2.116,-2.1144,-2.1196,-2.1199,-2.1209,-2.1241,-2.1215,-2.1245,-2.1229,-2.1258,-2.125,-2.13,-2.1306,-2.1305,-2.1303,-2.1308,-2.1309,-2.132,-2.1314,-2.1294,-2.1293,-2.1293,-2.1292,0,-2.1148,-2.1141,-2.1195,-2.1202,-2.1205,-2.1244,-2.1249,-2.1279,-2.1276,-2.1316,-2.1325,-2.132,-2.1352,-2.1343,-2.1379,-2.1373,-2.1436,-2.1425,-2.1432,-2.143,-2.1476,-2.1472,-2.1624,-2.1643,-2.1503,-2.1505,-2.1506,0,-2.1216,-2.1253,-2.1263,-2.1283,-2.1291,-2.1323,-2.134,-2.1325,-2.1345,-2.1363,-2.1391,-2.1421,-2.1445,-2.1498,-2.1498,-2.1525,-2.1515,-2.1566,-2.1519,-2.1523,-2.1517,-2.1515,-2.1519,-2.1576,-2.1578,-2.1579,-2.158,0,-2.1339,-2.1333,-2.136,-2.1386,-2.1408,-2.1427,-2.1444,-2.1461,-2.1447,-2.1471,-2.1504,-2.1522,-2.1558,-2.1589,-2.1613,-2.1619,-2.1598,-2.1595,-2.1607,-2.1614,-2.1616,-2.1616,-2.1459,-2.1592,-2.1591,-2.159,-2.1589,-2.1589,-2.1429,-2.146,-2.1472,-2.1503,-2.1514,-2.153,-2.1559,-2.1559,-2.1586,-2.1614,-2.1603,-2.1641,-2.1654,-2.1684,-2.1693,-2.1723,-2.1703,-2.172,-2.1725,-2.173,-2.1736,-2.161,-2.1727,-2.1727,-2.1726,-2.1726,-2.1726,0,-2.1551,-2.1557,-2.1585,-2.161,-2.1634,-2.1611,-2.1628,-2.165,-2.1684,-2.1697,-2.1721,-2.1759,-2.1788,-2.179,-2.1817,-2.184,-2.1831,-2.1848,-2.1847,-2.1849,-2.1751,-2.1739,-2.1855,-2.1855,-2.1855,-2.1855,-2.1855,-2.1855,-2.1617,-2.1668,-2.1664,-2.172,-2.1726,-2.1763,-2.1775,-2.179,-2.18,-2.1844,-2.1868,-2.1869,-2.1877,-2.1905,-2.193,-2.193,-2.1942,-2.1963,-2.1959,-2.1868,-2.1855,-2.1843,-2.1831,-2.1965,-2.1965,-2.2054,-2.2054,-2.2055]},{"header":{"parameterUnit":"m.s-1","parameterCategory":1,"la1":30.2991,"la2":30.254,"lo1":-89.0895,"lo2":-89.0444,"dy":0.0017,"dx":0.0017,"nx":28,"ny":28,"refTime":"2023-11-11T09:00:00:Z","depth":0,"parameterNumber":3,"parameterNumberName":"V-component_of_WINDS"},"data":[0,0,0,0,0,0,0,0,0,0,0,0,0,0,0,0,0,0,0,0,0,0,0,0,0,0,0,0,0,0,0,0,0,0,0,0,0,0,0,0,0,0,0,0,0,0,0,0,0,0,0,0,0,0,0,0,0,0,-4.6576,-4.6576,0,-4.6602,-4.6603,-4.6603,-4.6555,-4.6553,-4.6552,-4.655,-4.6573,-4.6575,-4.6577,0,0,0,0,0,0,0,0,0,0,0,0,0,-4.6481,-4.6483,-4.6576,-4.6576,-4.6577,-4.6602,-4.6603,-4.6603,-4.6555,-4.6553,-4.6551,-4.6549,-4.6573,-4.6575,-4.6578,0,0,0,0,0,0,0,0,0,0,0,0,0,-4.6516,-4.6484,-4.6576,-4.6556,-4.6555,-4.6602,-4.6603,-4.6603,-4.6556,-4.6553,-4.6551,-4.6549,-4.6572,-4.6575,-4.6578,-4.6645,0,0,-4.6588,-4.6589,0,0,0,0,0,0,0,0,-4.6514,-4.652,-4.6559,-4.6558,-4.6556,-4.6573,-4.6577,-4.6617,-4.6556,-4.6555,-4.655,-4.6547,-4.6575,-4.6578,-4.6588,-4.6646,-4.6647,-4.6588,-4.659,-4.6591,-4.6592,0,0,0,0,0,0,0,-4.6512,-4.6518,-4.6586,-4.6559,-4.6558,-4.6545,-4.6547,-4.6585,-4.6578,-4.6555,-4.6552,-4.6556,-4.6574,-4.6585,-4.6588,-4.6647,-4.6588,-4.6591,-4.6592,-4.6594,-4.6762,-4.6764,0,0,0,0,0,0,-4.6512,-4.6517,-4.6585,-4.6587,-4.6529,-4.6548,-4.6551,-4.657,-4.6577,-4.6576,-4.6558,-4.6553,-4.658,-4.6584,-4.6588,-4.6667,-4.6591,-4.6594,-4.6596,-4.6759,-4.6763,-4.6765,0,0,0,0,0,0,-4.6511,-4.6519,-4.6584,-4.6551,-4.6558,-4.6552,-4.6574,-4.6572,-4.6583,-4.6579,-4.6577,-4.657,-4.6579,-4.6584,-4.6632,-4.6667,-4.6595,-4.6598,-4.6756,-4.676,-4.6764,-4.6826,0,0,0,0,0,0,-4.6508,-4.6519,-4.6545,-4.6552,-4.656,-4.6628,-4.6576,-4.6574,-4.6589,-4.6583,-4.6591,-4.659,-4.6577,-4.6627,-4.6635,-4.667,-4.6601,-4.6753,-4.6758,-4.6763,-4.6821,-4.6831,-4.6841,0,0,0,0,0,-4.6505,-4.6561,-4.6547,-4.6555,-4.6593,-4.6631,-4.6635,-4.6621,-4.6592,-4.6617,-4.6615,-4.659,-4.6662,-4.6632,-4.664,-4.6678,-4.6751,-4.6757,-4.6762,-4.6816,-4.6829,-4.684,0,0,0,0,0,0,-4.6557,-4.6561,-4.6546,-4.6606,-4.6618,-4.6622,-4.6654,-4.6635,-4.6655,-4.6649,-4.6629,-4.6631,-4.6682,-4.6685,-4.6651,-4.6743,-4.6702,-4.6709,-4.674,-4.6752,-4.6762,-4.676,-4.6603,0,0,0,0,0,-4.6575,-4.6606,-4.6608,-4.6661,-4.6668,-4.666,-4.6676,-4.6664,-4.6676,-4.668,-4.6681,-4.6693,-4.6718,-4.6735,-4.6758,-4.6821,-4.6821,-4.685,-4.686,-4.6869,-4.6875,-4.6908,-4.6921,-4.6784,-4.6784,-4.6784,0,0,-4.6613,-4.662,-4.664,-4.6671,-4.668,-4.6711,-4.6665,-4.67,-4.6723,-4.6685,-4.673,-4.6732,-4.6743,-4.6798,-4.6823,-4.6802,-4.6913,-4.6876,-4.6883,-4.6885,-4.6916,-4.6928,-4.694,-4.6788,-4.6788,-4.6787,0,0,-4.6699,-4.6708,-4.6753,-4.6762,-4.6776,-4.6771,-4.6781,-4.6789,-4.6789,-4.6834,-4.6806,-4.6832,-4.6877,-4.6886,-4.6896,-4.6986,-4.6963,-4.6994,-4.7047,-4.7079,-4.709,-4.7099,-4.7131,-4.7142,-4.7001,-4.7001,-4.7001,0,-4.6745,-4.6793,-4.6778,-4.6815,-4.6829,-4.6798,-4.6842,-4.6852,-4.6872,-4.6882,-4.6859,-4.6914,-4.6919,-4.6976,-4.6998,-4.7008,-4.7019,-4.6993,-4.7089,-4.7099,-4.7107,-4.7137,-4.7149,-4.7005,-4.7005,-4.7004,-4.7004,0,-4.6848,-4.6881,-4.6915,-4.6937,-4.6955,-4.6996,-4.6986,-4.7006,-4.6992,-4.6989,-4.7035,-4.7041,-4.7065,-4.7077,-4.7064,-4.7132,-4.7119,-4.7093,-4.7051,-4.7124,-4.7152,-4.7164,-4.701,-4.7009,-4.7008,-4.7007,0,0,-4.6966,-4.698,-4.6993,-4.7002,-4.7015,-4.704,-4.7079,-4.7104,-4.7121,-4.7136,-4.7168,-4.7206,-4.7182,-4.7194,-4.7181,-4.721,-4.7281,-4.718,-4.718,-4.7198,-4.7356,-4.7375,-4.7389,-4.7266,-4.7268,-4.7269,-4.7355,0,-4.7052,-4.7121,-4.7108,-4.7175,-4.7205,-4.7176,-4.721,-4.7221,-4.7219,-4.7243,-4.724,-4.7268,-4.7235,-4.7242,-4.7269,-4.7266,-4.7312,-4.726,-4.7294,-4.7295,-4.7292,-4.7403,-4.7424,-4.7504,-4.7366,-4.7368,-4.7369,0,-4.716,-4.7181,-4.7251,-4.7259,-4.7272,-4.7303,-4.7324,-4.7348,-4.736,-4.7356,-4.737,-4.7352,-4.739,-4.7348,-4.7399,-4.7364,-4.7377,-4.7378,-4.7381,-4.7383,-4.7336,-4.7408,-4.753,-4.7542,-4.7386,-4.7385,-4.7383,0,-4.724,-4.7285,-4.7332,-4.7341,-4.7352,-4.7375,-4.738,-4.739,-4.7405,-4.7423,-4.7433,-4.7455,-4.7467,-4.7484,-4.7472,-4.7443,-4.7526,-4.7483,-4.7523,-4.7523,-4.7541,-4.754,-4.7666,-4.7551,-4.755,-4.755,-4.755,0,-4.7336,-4.738,-4.7368,-4.7398,-4.7446,-4.7431,-4.7478,-4.748,-4.7488,-4.7517,-4.7492,-4.7519,-4.7502,-4.7527,-4.7518,-4.7561,-4.7567,-4.7564,-4.7561,-4.7567,-4.7567,-4.7574,-4.7568,-4.7553,-4.7553,-4.7552,-4.7552,0,-4.7433,-4.7427,-4.7477,-4.7484,-4.7486,-4.7521,-4.7526,-4.7553,-4.755,-4.7586,-4.7593,-4.7587,-4.7616,-4.7606,-4.7635,-4.7629,-4.7685,-4.7675,-4.7682,-4.7679,-4.772,-4.7716,-4.7855,-4.7872,-4.7746,-4.7747,-4.7748,0,-4.7494,-4.7528,-4.7539,-4.7556,-4.7564,-4.7593,-4.7609,-4.7595,-4.7613,-4.7629,-4.7654,-4.768,-4.77,-4.7747,-4.7744,-4.7767,-4.7757,-4.7804,-4.776,-4.7764,-4.7757,-4.7755,-4.7758,-4.7813,-4.7814,-4.7815,-4.7816,0,-4.7605,-4.76,-4.7625,-4.7649,-4.767,-4.7687,-4.7703,-4.7719,-4.7706,-4.7726,-4.7756,-4.7772,-4.7803,-4.7829,-4.785,-4.7854,-4.7833,-4.783,-4.7841,-4.7846,-4.7849,-4.7847,-4.7705,-4.7827,-4.7826,-4.7825,-4.7824,-4.7824,-4.7685,-4.7714,-4.7726,-4.7754,-4.7765,-4.778,-4.7806,-4.7806,-4.7831,-4.7856,-4.7846,-4.7879,-4.789,-4.7915,-4.7922,-4.7948,-4.7929,-4.7945,-4.7948,-4.7952,-4.7958,-4.7845,-4.7951,-4.7951,-4.7951,-4.795,-4.795,0,-4.7794,-4.7801,-4.7827,-4.785,-4.7873,-4.7852,-4.7868,-4.7888,-4.7918,-4.793,-4.7951,-4.7985,-4.801,-4.801,-4.8034,-4.8054,-4.8045,-4.8061,-4.8059,-4.806,-4.7973,-4.7961,-4.8068,-4.8068,-4.8068,-4.8068,-4.8068,-4.8068,-4.7853,-4.79,-4.7897,-4.7948,-4.7954,-4.7988,-4.7999,-4.8012,-4.8022,-4.8061,-4.8083,-4.8083,-4.809,-4.8114,-4.8136,-4.8135,-4.8145,-4.8164,-4.8159,-4.8078,-4.8066,-4.8055,-4.8044,-4.8166,-4.8166,-4.8244,-4.8245,-4.8246]}]]